Overview Statistics Trail Chart Weather Telemetry Raw packets
 

This is the latest recevied weather packets stored in our database for station/object KG5APU. If no packets are shown the sender has not sent any weather packets the latest 10 day(s).

<< 48 49 50 51 52 53 54 >>
Time Temp. Humidity Pressure Rain* Wind** Luminosity Snow
1787894331 27.78° C 67% 1017 hPa 0 mm - 0 W/m² -
1787893729 27.78° C 63% 1016.8 hPa 0 mm - 0 W/m² -
1787893125 28.33° C 63% 1016.7 hPa 0 mm - 0 W/m² -
1787892523 28.89° C 63% 1016.5 hPa 0 mm - 0 W/m² -
1787891919 28.89° C 61% 1016.6 hPa 0 mm - 0 W/m² -
1787891317 28.89° C 60% 1016.5 hPa 0 mm - 0 W/m² -
1787890716 28.89° C 59% 1016.5 hPa 0 mm - 0 W/m² -
1787890112 28.89° C 59% 1016.4 hPa 0 mm - 0 W/m² -
1787889507 28.89° C 58% 1016.1 hPa 0 mm - 0 W/m² -
1787888902 29.44° C 58% 1016.2 hPa 0 mm - 0 W/m² -
1787888298 29.44° C 57% 1016.2 hPa 0 mm - 0 W/m² -
1787887695 29.44° C 58% 1016 hPa 0 mm - 0 W/m² -
1787887090 29.44° C 60% 1015.9 hPa 0 mm - 0 W/m² -
1787886491 30° C 58% 1015.7 hPa 0 mm - 0 W/m² -
1787885891 30° C 58% 1015.9 hPa 0 mm - 0 W/m² -
1787885288 30.56° C 56% 1015.8 hPa 0 mm - 0 W/m² -
1787884684 30.56° C 56% 1015.7 hPa 0 mm - 0 W/m² -
1787884081 30.56° C 55% 1015.5 hPa 0 mm - 0 W/m² -
1787883478 30.56° C 54% 1015.2 hPa 0 mm - 0 W/m² -
1787882878 31.11° C 53% 1015.2 hPa 0 mm - 0 W/m² -
1787882276 31.11° C 53% 1014.9 hPa 0 mm - 0 W/m² -
1787881670 31.67° C 51% 1014.8 hPa 0 mm - 0 W/m² -
1787881068 32.22° C 48% 1015.1 hPa 0 mm - 0 W/m² -
1787880468 32.22° C 48% 1014.5 hPa 0 mm - 0 W/m² -
1787879862 32.78° C 47% 1014.3 hPa 0 mm - 0 W/m² -

* Rain latest hour (hover to see other rain measurements)
** Current wind speed in m/s (hover to see current wind gust speed)